Vancouver Int'l Airport, British Columbia

Past 24 Hour Conditions

This table is a summary of hourly weather conditions for the past 24 hours. This summary includes the following parameters: temperature, humidity, dew point, wind speed and direction, air pressure, visibility and/or wind chill and humidex.
Date / Time
(PDT)
Conditions Temp (°C) Humidity (%) Dew Point (°C) Wind (km/h) Pressure (kPa) Vis (km) Humidex
23 July 2014
2:00 Mainly Clear 15 88 13 NNE 8 101.6 32 *
1:00 Mostly Cloudy 17 79 13 ESE 6 101.7 32 *
00:00 Mainly Clear 16 83 14 SSE 5 101.7 32 *
22 July 2014
23:00 Cloudy 17 81 14 S 5 101.7 32 *
22:00 Partly Cloudy 18 78 14 S 7 101.7 32 *
21:00 Mainly Sunny 18 71 13 SE 9 101.7 32 *
20:00 Mostly Cloudy 19 67 13 ESE 16 101.7 32 *
19:00 Mostly Cloudy 20 64 13 ESE 16 gust 28 101.7 32 *
18:00 Mostly Cloudy 20 63 13 ESE 24 101.8 48 *
17:00 Partly Cloudy 20 63 13 ESE 22 101.8 48 *
16:00 Partly Cloudy 21 58 13 ESE 20 101.8 48 *
15:00 Partly Cloudy 22 52 12 E 21 gust 30 101.8 48 *
14:00 Mostly Cloudy 23   50 12 SE 18 gust 30 101.8 48 25
13:00 Partly Cloudy 23   54 13 S 18 101.8 48 26
12:00 Partly Cloudy 22 53 12 SSE 18 101.7 48 *
11:00 Partly Cloudy 21 56 12 SSE 18 101.7 48 *
10:00 Mostly Cloudy 19 65 12 SSE 14 101.7 48 *
9:00 Mostly Cloudy 18 72 13 SSE 13 gust 28 101.7 48 *
8:00 Mainly Sunny 17 76 12 ESE 16 101.7 48 *
7:00 Partly Cloudy 15 82 12 ESE 12 101.7 48 *
6:00 Mainly Sunny 14   84 11 ESE 13 101.6 24 *
5:00 Mainly Clear 14   84 12 E 16 101.6 24 *
4:00 Cloudy 16 78 12 E 11 101.6 24 *
3:00 Cloudy 16 76 12 ENE 15 101.6 24 *
2:00 Clear 16 76 11 ENE 13 101.6 24 *
N/A
Not available
 ↑ 
Highest temperature
 ↓ 
Lowest temperature
*
Value not significant.

If you require additional historical weather information, please visit Climate Data Online.